Bell City, Kentucky
Current Conditions -  °F | °C
As of 8:55 PM on Wednesday 17 Dec 2014 (Local Time) from KM25 Reporting Station
Clear Clear  
Wind Chill: 34°   Ceiling: Unl
Heat Index: 34°   Visibility: 10mi
Dew Point: 30°   Wind: 0mph
Humidity: 87%   Direction: NA
Pressure: 30.27"   Gusts: NA
Location:  36.6766°N, 88.5376°W
Report Text: KM25 180255Z AUTO 00000KT 10SM CLR 01/M01 A3027 RMK AO2
Loading
Personal Weather Stations






























Interactive Weather Map New forecast layout! Learn more

10-Day Weather Forecast

Advertisements
Track Severe Weather on mobile